Year,Month,Day,Hour,Minute,Value (Times are PST for temperature in C)
2016,06,28,00,00,20.30
2016,06,28,00,01,20.30
2016,06,28,00,02,20.30
2016,06,28,00,03,20.30
2016,06,28,00,04,20.30
2016,06,28,00,05,20.30
2016,06,28,00,06,20.30
2016,06,28,00,07,20.30
2016,06,28,00,08,20.40
2016,06,28,00,09,20.40
2016,06,28,00,10,20.50
2016,06,28,00,11,20.50
2016,06,28,00,12,20.50
2016,06,28,00,13,20.40
2016,06,28,00,14,20.40
2016,06,28,00,15,20.40
2016,06,28,00,16,20.30
2016,06,28,00,17,20.30
2016,06,28,00,18,20.20
2016,06,28,00,19,20.20
2016,06,28,00,20,20.20
2016,06,28,00,21,20.10
2016,06,28,00,22,20.10
2016,06,28,00,23,20.10
2016,06,28,00,24,20.20
2016,06,28,00,43,20.50
2016,06,28,00,44,20.40
2016,06,28,00,46,20.30
2016,06,28,00,47,20.30
2016,06,28,00,48,20.30
2016,06,28,00,49,20.30
2016,06,28,00,51,20.30
2016,06,28,00,52,20.30
2016,06,28,00,53,20.20
2016,06,28,00,54,20.20
2016,06,28,00,55,20.10
2016,06,28,00,56,20.10
2016,06,28,00,57,20.10
2016,06,28,00,58,20.10
2016,06,28,00,59,19.90
2016,06,28,01,00,19.90
2016,06,28,01,01,19.70
2016,06,28,01,02,19.60
2016,06,28,01,03,19.50
2016,06,28,01,04,19.40
2016,06,28,01,06,19.20
2016,06,28,01,07,19.10
2016,06,28,01,08,19.10
2016,06,28,01,09,18.90
2016,06,28,01,10,18.90
2016,06,28,01,11,18.70
2016,06,28,01,12,18.60
2016,06,28,01,13,18.40
2016,06,28,01,14,18.20
2016,06,28,01,15,18.10
2016,06,28,01,16,17.90
2016,06,28,01,17,17.80
2016,06,28,01,18,17.70
2016,06,28,01,19,17.60
2016,06,28,01,20,17.60
2016,06,28,01,21,17.50
2016,06,28,01,22,17.40
2016,06,28,01,23,17.30
2016,06,28,01,24,17.30
2016,06,28,01,25,17.20
2016,06,28,01,26,17.20
2016,06,28,01,27,17.10
2016,06,28,01,28,17.10
2016,06,28,01,29,17.00
2016,06,28,01,30,16.90
2016,06,28,01,31,16.80
2016,06,28,01,32,16.80
2016,06,28,01,33,16.80
2016,06,28,01,34,16.70
2016,06,28,01,35,16.70
2016,06,28,01,36,16.70
2016,06,28,01,37,16.70
2016,06,28,01,38,16.70
2016,06,28,01,39,16.70
2016,06,28,01,40,16.70
2016,06,28,01,41,16.60
2016,06,28,01,42,16.60
2016,06,28,01,43,16.60
2016,06,28,01,44,16.60
2016,06,28,01,45,16.60
2016,06,28,01,46,16.60
2016,06,28,01,47,16.60
2016,06,28,01,48,16.40
2016,06,28,01,49,16.40
2016,06,28,01,50,16.40
2016,06,28,01,51,16.40
2016,06,28,01,52,16.40
2016,06,28,01,53,16.30
2016,06,28,01,54,16.30
2016,06,28,01,55,16.20
2016,06,28,01,56,16.20
2016,06,28,01,57,16.20
2016,06,28,01,58,16.20
2016,06,28,01,59,16.20
2016,06,28,02,00,16.20
2016,06,28,02,01,16.20
2016,06,28,02,02,16.20
2016,06,28,02,03,16.20
2016,06,28,02,04,16.20
2016,06,28,02,05,16.30
2016,06,28,02,06,16.30
2016,06,28,02,07,16.30
2016,06,28,02,08,16.30
2016,06,28,02,09,16.30
2016,06,28,02,10,16.30
2016,06,28,02,11,16.20
2016,06,28,02,12,16.20
2016,06,28,02,13,16.20
2016,06,28,02,14,16.10
2016,06,28,02,15,16.10
2016,06,28,02,16,16.10
2016,06,28,02,17,16.10
2016,06,28,02,18,16.10
2016,06,28,02,19,16.10
2016,06,28,02,20,16.10
2016,06,28,02,21,16.10
2016,06,28,02,22,16.10
2016,06,28,02,23,16.10
2016,06,28,02,24,16.10
2016,06,28,02,25,16.20
2016,06,28,02,27,16.20
2016,06,28,02,28,16.20
2016,06,28,02,29,16.20
2016,06,28,02,31,16.30
2016,06,28,02,32,16.40
2016,06,28,02,33,16.40
2016,06,28,02,34,16.40
2016,06,28,02,36,16.40
2016,06,28,02,37,16.40
2016,06,28,02,38,16.40
2016,06,28,02,39,16.40
2016,06,28,02,41,16.40
2016,06,28,02,42,16.40
2016,06,28,02,43,16.40
2016,06,28,02,44,16.60
2016,06,28,02,46,16.70
2016,06,28,02,47,16.70
2016,06,28,02,48,16.80
2016,06,28,02,49,16.90
2016,06,28,02,51,17.00
2016,06,28,02,52,17.10
2016,06,28,02,53,17.20
2016,06,28,02,54,17.30
2016,06,28,02,56,17.30
2016,06,28,02,57,17.40
2016,06,28,02,58,17.50
2016,06,28,02,59,17.60
2016,06,28,03,01,17.80
2016,06,28,03,02,17.90
2016,06,28,03,03,17.90
2016,06,28,03,04,18.10
2016,06,28,03,06,18.20
2016,06,28,03,07,18.30
2016,06,28,03,08,18.40
2016,06,28,03,09,18.50
2016,06,28,03,11,18.70
2016,06,28,03,12,18.80
2016,06,28,03,13,18.90
2016,06,28,03,14,18.90
2016,06,28,03,16,19.10
2016,06,28,03,17,19.20
2016,06,28,03,18,19.30
2016,06,28,03,19,19.40
2016,06,28,03,21,19.50
2016,06,28,03,22,19.60
2016,06,28,03,23,19.70
2016,06,28,03,24,19.70
2016,06,28,03,26,19.90
2016,06,28,03,27,20.10
2016,06,28,03,28,20.20
2016,06,28,03,29,20.30
2016,06,28,03,31,20.60
2016,06,28,03,32,20.80
2016,06,28,03,33,20.90
2016,06,28,03,34,21.10
2016,06,28,03,36,21.30
2016,06,28,03,37,21.60
2016,06,28,03,38,21.60
2016,06,28,03,39,21.80
2016,06,28,03,41,22.10
2016,06,28,03,42,22.20
2016,06,28,03,43,22.30
2016,06,28,03,44,22.30
2016,06,28,03,45,22.30
2016,06,28,03,46,22.30
2016,06,28,03,47,22.30
2016,06,28,03,48,22.40
2016,06,28,03,49,22.40
2016,06,28,03,50,22.40
2016,06,28,03,51,22.40
2016,06,28,03,52,22.40
2016,06,28,03,53,22.50
2016,06,28,03,54,22.50
2016,06,28,03,55,22.60
2016,06,28,03,56,22.60
2016,06,28,03,57,22.60
2016,06,28,03,58,22.60
2016,06,28,03,59,22.70
2016,06,28,04,00,22.70
2016,06,28,04,01,22.70
2016,06,28,04,02,22.80
2016,06,28,04,03,22.80
2016,06,28,04,04,22.80
2016,06,28,04,06,22.80
2016,06,28,04,07,22.80
2016,06,28,04,08,22.80
2016,06,28,04,09,22.80
2016,06,28,04,10,22.70
2016,06,28,04,11,22.60
2016,06,28,04,12,22.50
2016,06,28,04,13,22.40
2016,06,28,04,14,22.30
2016,06,28,04,15,22.30
2016,06,28,04,16,22.20
2016,06,28,04,17,22.10
2016,06,28,04,18,22.10
2016,06,28,04,19,21.90
2016,06,28,04,20,21.80
2016,06,28,04,21,21.70
2016,06,28,04,22,21.60
2016,06,28,04,23,21.30
2016,06,28,04,24,21.20
2016,06,28,04,25,20.90
2016,06,28,04,26,20.60
2016,06,28,04,27,20.30
2016,06,28,04,28,20.10
2016,06,28,04,29,19.80
2016,06,28,04,30,19.50
2016,06,28,04,31,19.30
2016,06,28,04,32,19.10
2016,06,28,04,33,18.90
2016,06,28,04,34,18.70
2016,06,28,04,35,18.50
2016,06,28,04,36,18.20
2016,06,28,04,37,18.20
2016,06,28,04,38,17.90
2016,06,28,04,39,17.90
2016,06,28,04,40,17.70
2016,06,28,04,41,17.60
2016,06,28,04,42,17.50
2016,06,28,04,43,17.40
2016,06,28,04,44,17.30
2016,06,28,04,45,17.20
2016,06,28,04,46,17.10
2016,06,28,04,47,17.00
2016,06,28,04,48,16.90
2016,06,28,04,49,16.70
2016,06,28,04,50,16.70
2016,06,28,04,51,16.60
2016,06,28,04,52,16.60
2016,06,28,04,53,16.40
2016,06,28,04,54,16.40
2016,06,28,04,55,16.30
2016,06,28,04,56,16.30
2016,06,28,04,57,16.20
2016,06,28,04,58,16.20
2016,06,28,04,59,16.20
2016,06,28,05,00,16.10
2016,06,28,05,01,16.10
2016,06,28,05,02,16.10
2016,06,28,05,03,16.10
2016,06,28,05,04,16.10
2016,06,28,05,05,16.10
2016,06,28,05,06,15.90
2016,06,28,05,07,15.90
2016,06,28,05,08,15.90
2016,06,28,05,09,15.80
2016,06,28,05,10,15.80
2016,06,28,05,11,15.80
2016,06,28,05,12,15.80
2016,06,28,05,14,15.80
2016,06,28,05,16,15.70
2016,06,28,05,17,15.70
2016,06,28,05,18,15.60
2016,06,28,05,19,15.60
2016,06,28,05,21,15.50
2016,06,28,05,22,15.40
2016,06,28,05,23,15.40
2016,06,28,05,24,15.40
2016,06,28,05,26,15.30
2016,06,28,05,27,15.30
2016,06,28,05,28,15.30
2016,06,28,05,29,15.30
2016,06,28,05,31,15.20
2016,06,28,05,32,15.20
2016,06,28,05,33,15.20
2016,06,28,05,34,15.20
2016,06,28,05,43,15.00
2016,06,28,05,44,15.00
2016,06,28,05,46,14.90
2016,06,28,05,47,14.90
2016,06,28,05,48,14.90
2016,06,28,05,49,14.90
2016,06,28,05,51,14.80
2016,06,28,05,52,14.80
2016,06,28,05,53,14.80
2016,06,28,05,54,14.80
2016,06,28,05,56,14.80
2016,06,28,05,57,14.80
2016,06,28,05,58,14.80
2016,06,28,05,59,14.70
2016,06,28,06,00,14.70
2016,06,28,06,01,14.70
2016,06,28,06,02,14.70
2016,06,28,06,03,14.70
2016,06,28,06,04,14.70
2016,06,28,06,06,14.60
2016,06,28,06,07,14.60
2016,06,28,06,08,14.60
2016,06,28,06,09,14.60
2016,06,28,06,10,14.60
2016,06,28,06,11,14.60
2016,06,28,06,12,14.60
2016,06,28,06,43,14.20
2016,06,28,06,44,14.20
2016,06,28,06,46,14.20
2016,06,28,06,47,14.20
2016,06,28,06,48,14.10
2016,06,28,06,49,14.10
2016,06,28,06,51,14.10
2016,06,28,06,52,14.10
2016,06,28,06,53,14.10
2016,06,28,06,54,14.10
2016,06,28,06,55,14.10
2016,06,28,06,56,14.10
2016,06,28,06,57,14.10
2016,06,28,06,58,14.00
2016,06,28,06,59,14.00
2016,06,28,07,00,14.00
2016,06,28,07,01,14.00
2016,06,28,07,02,14.00
2016,06,28,07,03,14.00
2016,06,28,07,04,14.00
2016,06,28,07,06,14.00
2016,06,28,07,07,14.00
2016,06,28,07,08,14.00
2016,06,28,07,09,14.00
2016,06,28,07,10,14.00
2016,06,28,07,11,14.00
2016,06,28,07,12,14.00
2016,06,28,07,13,14.00
2016,06,28,07,14,14.00
2016,06,28,07,15,14.00
2016,06,28,07,16,14.00
2016,06,28,07,17,14.00
2016,06,28,07,18,14.00
2016,06,28,07,19,14.00
2016,06,28,07,20,14.00
2016,06,28,07,21,14.00
2016,06,28,07,22,14.00
2016,06,28,07,23,14.10
2016,06,28,07,24,14.10
2016,06,28,07,25,14.10
2016,06,28,07,26,14.10
2016,06,28,07,27,14.10
2016,06,28,07,28,14.10
2016,06,28,07,29,14.10
2016,06,28,07,30,14.10
2016,06,28,07,31,14.10
2016,06,28,07,32,14.10
2016,06,28,07,33,14.10
2016,06,28,07,34,14.10
2016,06,28,07,35,14.10
2016,06,28,07,36,14.10
2016,06,28,07,37,14.10
2016,06,28,07,38,14.10
2016,06,28,07,39,14.10
2016,06,28,07,40,14.10
2016,06,28,07,41,14.10
2016,06,28,07,42,14.10
2016,06,28,07,43,14.20
2016,06,28,07,44,14.20
2016,06,28,07,45,14.10
2016,06,28,07,46,14.10
2016,06,28,07,47,14.10
2016,06,28,07,48,14.10
2016,06,28,07,49,14.10
2016,06,28,07,50,14.10
2016,06,28,07,51,14.10
2016,06,28,07,52,14.10
2016,06,28,07,53,14.10
2016,06,28,07,54,14.10
2016,06,28,07,55,14.10
2016,06,28,07,56,14.10
2016,06,28,07,57,14.10
2016,06,28,07,58,14.10
2016,06,28,07,59,14.10
2016,06,28,08,00,14.10
2016,06,28,08,01,14.10
2016,06,28,08,02,14.10
2016,06,28,08,03,14.10
2016,06,28,08,04,14.10
2016,06,28,08,05,14.10
2016,06,28,08,06,14.10
2016,06,28,08,07,14.10
2016,06,28,08,08,14.10
2016,06,28,08,09,14.00
2016,06,28,08,10,14.00
2016,06,28,08,11,14.00
2016,06,28,08,12,14.00
2016,06,28,08,13,14.00
2016,06,28,08,14,14.00
2016,06,28,08,15,14.00
2016,06,28,08,16,14.00
2016,06,28,08,17,14.00
2016,06,28,08,18,14.00
2016,06,28,08,19,14.00
2016,06,28,08,20,14.00
2016,06,28,08,21,14.10
2016,06,28,08,22,14.10
2016,06,28,08,23,14.10
2016,06,28,08,24,14.10
2016,06,28,08,25,14.10
2016,06,28,08,26,14.10
2016,06,28,08,27,14.10
2016,06,28,08,29,14.10
2016,06,28,08,31,14.10
2016,06,28,08,32,14.10
2016,06,28,08,33,14.10
2016,06,28,08,34,14.10
2016,06,28,08,36,14.10
2016,06,28,08,37,14.10
2016,06,28,08,38,14.10
2016,06,28,08,39,14.10
2016,06,28,08,41,14.10
2016,06,28,08,42,14.10
2016,06,28,08,43,14.10
2016,06,28,08,44,14.10
2016,06,28,08,46,14.10
2016,06,28,08,47,14.10
2016,06,28,08,48,14.10
2016,06,28,08,49,14.10
2016,06,28,08,51,14.10
2016,06,28,08,52,14.10
2016,06,28,08,53,14.10
2016,06,28,08,54,14.10
2016,06,28,08,56,14.10
2016,06,28,08,57,14.10
2016,06,28,08,58,14.10
2016,06,28,08,59,14.10
2016,06,28,09,01,14.10
2016,06,28,09,02,14.10
2016,06,28,09,03,14.10
2016,06,28,09,04,14.10
2016,06,28,09,06,14.10
2016,06,28,09,07,14.10
2016,06,28,09,08,14.10
2016,06,28,09,09,14.10
2016,06,28,09,11,14.10
2016,06,28,09,12,14.10
2016,06,28,09,13,14.10
2016,06,28,09,14,14.10
2016,06,28,09,16,14.00
2016,06,28,09,17,14.00
2016,06,28,09,18,14.00
2016,06,28,09,19,14.00
2016,06,28,09,21,14.00
2016,06,28,09,22,14.00
2016,06,28,09,23,14.00
2016,06,28,09,24,14.00
2016,06,28,09,26,14.00
2016,06,28,09,27,14.00
2016,06,28,09,28,14.00
2016,06,28,09,29,14.00
2016,06,28,09,31,14.00
2016,06,28,09,32,14.00
2016,06,28,09,33,14.00
2016,06,28,09,34,14.00
2016,06,28,09,36,14.00
2016,06,28,09,37,14.00
2016,06,28,09,38,14.00
2016,06,28,09,39,14.00
2016,06,28,09,41,14.00
2016,06,28,09,42,14.00
2016,06,28,09,43,14.00
2016,06,28,09,44,14.00
2016,06,28,09,46,14.00
2016,06,28,09,47,14.00
2016,06,28,09,48,14.00
2016,06,28,09,49,13.90
2016,06,28,09,51,13.90
2016,06,28,09,52,13.90
2016,06,28,09,53,13.90
2016,06,28,09,54,13.90
2016,06,28,09,55,13.90
2016,06,28,09,56,13.90
2016,06,28,09,57,13.90
2016,06,28,09,58,13.90
2016,06,28,09,59,13.90
2016,06,28,10,00,13.90
2016,06,28,10,01,13.90
2016,06,28,10,02,13.90
2016,06,28,10,03,13.90
2016,06,28,10,04,13.90
2016,06,28,10,06,13.90
2016,06,28,10,07,13.90
2016,06,28,10,08,13.90
2016,06,28,10,09,13.90
2016,06,28,10,10,13.90
2016,06,28,10,11,13.90
2016,06,28,10,12,13.90
2016,06,28,10,13,13.90
2016,06,28,10,14,13.90
2016,06,28,10,15,13.90
2016,06,28,10,16,13.90
2016,06,28,10,17,13.90
2016,06,28,10,18,13.90
2016,06,28,10,19,13.80
2016,06,28,10,20,13.80
2016,06,28,10,21,13.80
2016,06,28,10,22,13.80
2016,06,28,10,23,13.80
2016,06,28,10,24,13.80
2016,06,28,10,25,13.80
2016,06,28,10,26,13.80
2016,06,28,10,27,13.80
2016,06,28,10,28,13.80
2016,06,28,10,29,13.80
2016,06,28,10,30,13.80
2016,06,28,10,31,13.80
2016,06,28,10,32,13.70
2016,06,28,10,33,13.70
2016,06,28,10,34,13.70
2016,06,28,10,35,13.70
2016,06,28,10,36,13.70
2016,06,28,10,37,13.70
2016,06,28,10,38,13.70
2016,06,28,10,39,13.70
2016,06,28,10,40,13.70
2016,06,28,10,41,13.70
2016,06,28,10,42,13.70
2016,06,28,10,43,13.70
2016,06,28,10,44,13.70
2016,06,28,10,45,13.70
2016,06,28,10,46,13.70
2016,06,28,10,47,13.70
2016,06,28,10,48,13.70
2016,06,28,10,49,13.60
2016,06,28,10,50,13.60
2016,06,28,10,51,13.60
2016,06,28,10,52,13.60
2016,06,28,10,53,13.60
2016,06,28,10,54,13.60
2016,06,28,10,55,13.60
2016,06,28,10,56,13.60
2016,06,28,10,57,13.60
2016,06,28,10,58,13.60
2016,06,28,10,59,13.60
2016,06,28,11,00,13.60
2016,06,28,11,01,13.60
2016,06,28,11,02,13.60
2016,06,28,11,03,13.60
2016,06,28,11,04,13.50
2016,06,28,11,05,13.50
2016,06,28,11,06,13.50
2016,06,28,11,07,13.50
2016,06,28,11,08,13.50
2016,06,28,11,09,13.50
2016,06,28,11,10,13.50
2016,06,28,11,11,13.50
2016,06,28,11,12,13.50
2016,06,28,11,13,13.50
2016,06,28,11,14,13.50
2016,06,28,11,15,13.50
2016,06,28,11,17,13.50
2016,06,28,11,18,13.50
2016,06,28,11,19,13.50
2016,06,28,11,21,13.40
2016,06,28,11,22,13.40
2016,06,28,11,23,13.40
2016,06,28,11,24,13.40
2016,06,28,11,26,13.40
2016,06,28,11,27,13.40
2016,06,28,11,28,13.40
2016,06,28,11,29,13.40
2016,06,28,11,31,13.40
2016,06,28,11,32,13.40
2016,06,28,11,33,13.40
2016,06,28,11,34,13.40
2016,06,28,11,36,13.40
2016,06,28,11,37,13.30
2016,06,28,11,38,13.30
2016,06,28,11,39,13.30
2016,06,28,11,41,13.30
2016,06,28,11,42,13.30
2016,06,28,11,43,13.30
2016,06,28,11,44,13.30
2016,06,28,11,46,13.30
2016,06,28,11,47,13.30
2016,06,28,11,48,13.30
2016,06,28,11,49,13.30
2016,06,28,11,51,13.30
2016,06,28,11,52,13.30
2016,06,28,11,53,13.30
2016,06,28,11,54,13.30
2016,06,28,11,56,13.30
2016,06,28,11,57,13.30
2016,06,28,11,58,13.30
2016,06,28,11,59,13.30
2016,06,28,12,01,13.30
2016,06,28,12,02,13.30
2016,06,28,12,03,13.30
2016,06,28,12,04,13.20
2016,06,28,12,06,13.20
2016,06,28,12,07,13.20
2016,06,28,12,08,13.20
2016,06,28,12,09,13.20
2016,06,28,12,11,13.20
2016,06,28,12,12,13.20
2016,06,28,12,13,13.20
2016,06,28,12,14,13.20
2016,06,28,12,16,13.20
2016,06,28,12,17,13.20
2016,06,28,12,18,13.20
2016,06,28,12,19,13.20
2016,06,28,12,21,13.10
2016,06,28,12,22,13.10
2016,06,28,12,23,13.10
2016,06,28,12,24,13.10
2016,06,28,12,25,13.10
2016,06,28,12,26,13.10
2016,06,28,12,27,13.10
2016,06,28,12,28,13.10
2016,06,28,12,29,13.10
2016,06,28,12,30,13.10
2016,06,28,12,31,13.10
2016,06,28,12,32,13.10
2016,06,28,12,33,13.10
2016,06,28,12,34,13.10
2016,06,28,12,35,13.10
2016,06,28,12,36,13.10
2016,06,28,12,37,13.10
2016,06,28,12,38,13.10
2016,06,28,12,39,13.10
2016,06,28,12,40,13.10
2016,06,28,12,41,13.10
2016,06,28,12,42,13.10
2016,06,28,12,43,13.10
2016,06,28,12,44,13.10
2016,06,28,12,45,13.10
2016,06,28,12,46,13.10
2016,06,28,12,47,13.10
2016,06,28,12,48,13.10
2016,06,28,12,49,13.10
2016,06,28,12,50,13.10
2016,06,28,12,51,13.10
2016,06,28,12,52,13.10
2016,06,28,12,53,13.10
2016,06,28,12,54,13.10
2016,06,28,12,55,13.10
2016,06,28,12,56,13.10
2016,06,28,12,57,13.10
2016,06,28,12,58,13.10
2016,06,28,12,59,13.10
2016,06,28,13,00,13.10
2016,06,28,13,01,13.10
2016,06,28,13,02,13.10
2016,06,28,13,03,13.10
2016,06,28,13,04,13.10
2016,06,28,13,05,13.10
2016,06,28,13,06,13.10
2016,06,28,13,07,13.10
2016,06,28,13,08,13.10
2016,06,28,13,09,13.10
2016,06,28,13,10,13.00
2016,06,28,13,11,13.00
2016,06,28,13,12,13.00
2016,06,28,13,13,13.00
2016,06,28,13,14,13.00
2016,06,28,13,15,13.00
2016,06,28,13,16,13.00
2016,06,28,13,17,13.00
2016,06,28,13,18,13.00
2016,06,28,13,19,13.00
2016,06,28,13,20,13.00
2016,06,28,13,21,13.00
2016,06,28,13,22,13.00
2016,06,28,13,23,13.00
2016,06,28,13,24,13.00
2016,06,28,13,25,13.00
2016,06,28,13,26,13.00
2016,06,28,13,27,13.00
2016,06,28,13,28,13.00
2016,06,28,13,29,12.90
2016,06,28,13,30,12.90
2016,06,28,13,31,12.90
2016,06,28,13,32,12.90
2016,06,28,13,33,12.90
2016,06,28,13,34,12.90
2016,06,28,13,35,12.90
2016,06,28,13,36,12.90
2016,06,28,13,37,12.90
2016,06,28,13,38,12.90
2016,06,28,13,39,12.90
2016,06,28,13,40,12.90
2016,06,28,13,41,12.80
2016,06,28,13,42,12.80
2016,06,28,13,43,12.80
2016,06,28,13,44,12.80
2016,06,28,14,43,13.20
2016,06,28,14,44,13.20
2016,06,28,14,46,13.20
2016,06,28,14,47,13.20
2016,06,28,14,48,13.20
2016,06,28,14,49,13.30
2016,06,28,14,51,13.30
2016,06,28,14,52,13.30
2016,06,28,14,53,13.30
2016,06,28,14,54,13.30
2016,06,28,14,55,13.30
2016,06,28,14,56,13.30
2016,06,28,14,57,13.30
2016,06,28,14,58,13.30
2016,06,28,14,59,13.30
2016,06,28,15,00,13.30
2016,06,28,15,01,13.30
2016,06,28,15,02,13.30
2016,06,28,15,03,13.30
2016,06,28,15,04,13.30
2016,06,28,15,06,13.30
2016,06,28,15,07,13.30
2016,06,28,15,08,13.30
2016,06,28,15,09,13.30
2016,06,28,15,10,13.30
2016,06,28,15,11,13.40
2016,06,28,15,12,13.40
2016,06,28,15,13,13.40
2016,06,28,15,14,13.40
2016,06,28,15,15,13.40
2016,06,28,15,16,13.50
2016,06,28,15,17,13.50
2016,06,28,15,18,13.50
2016,06,28,15,19,13.50
2016,06,28,15,20,13.50
2016,06,28,15,21,13.50
2016,06,28,15,22,13.50
2016,06,28,15,23,13.50
2016,06,28,15,24,13.50
2016,06,28,15,25,13.60
2016,06,28,15,26,13.60
2016,06,28,15,27,13.60
2016,06,28,15,28,13.60
2016,06,28,15,29,13.60
2016,06,28,15,30,13.70
2016,06,28,15,31,13.70
2016,06,28,15,32,13.70
2016,06,28,15,43,13.70
2016,06,28,15,44,13.70
2016,06,28,15,46,13.70
2016,06,28,15,47,13.70
2016,06,28,15,48,13.70
2016,06,28,15,49,13.70
2016,06,28,15,51,13.70
2016,06,28,15,52,13.70
2016,06,28,15,53,13.70
2016,06,28,15,54,13.70
2016,06,28,15,56,13.70
2016,06,28,15,57,13.70
2016,06,28,15,58,13.70
2016,06,28,15,59,13.70
2016,06,28,16,00,13.70
2016,06,28,16,01,13.70
2016,06,28,16,02,13.70
2016,06,28,16,03,13.70
2016,06,28,16,04,13.70
2016,06,28,16,06,13.70
2016,06,28,16,07,13.70
2016,06,28,16,08,13.70
2016,06,28,16,09,13.70
2016,06,28,16,10,13.70
2016,06,28,16,11,13.70
2016,06,28,16,12,13.70
2016,06,28,16,13,13.70
2016,06,28,16,14,13.70
2016,06,28,16,15,13.70
2016,06,28,16,16,13.70
2016,06,28,16,17,13.70
2016,06,28,16,18,13.70
2016,06,28,16,19,13.80
2016,06,28,16,20,13.80
2016,06,28,16,21,13.80
2016,06,28,16,22,13.80
2016,06,28,16,43,14.50
2016,06,28,16,44,14.60
2016,06,28,16,46,14.70
2016,06,28,16,47,14.80
2016,06,28,16,48,14.80
2016,06,28,16,49,14.90
2016,06,28,16,51,15.10
2016,06,28,16,52,15.20
2016,06,28,16,53,15.30
2016,06,28,16,54,15.30
2016,06,28,16,55,15.50
2016,06,28,16,56,15.50
2016,06,28,16,57,15.60
2016,06,28,16,58,15.80
2016,06,28,16,59,15.80
2016,06,28,17,00,15.90
2016,06,28,17,01,16.10
2016,06,28,17,02,16.10
2016,06,28,17,03,16.20
2016,06,28,17,04,16.30
2016,06,28,17,06,16.60
2016,06,28,17,07,16.70
2016,06,28,17,08,16.70
2016,06,28,17,09,16.80
2016,06,28,17,10,16.90
2016,06,28,17,11,17.00
2016,06,28,17,12,17.10
2016,06,28,17,13,17.20
2016,06,28,17,14,17.30
2016,06,28,17,15,17.30
2016,06,28,17,16,17.30
2016,06,28,17,17,17.50
2016,06,28,17,18,17.60
2016,06,28,17,19,17.70
2016,06,28,17,20,17.70
2016,06,28,17,21,17.80
2016,06,28,17,22,17.80
2016,06,28,17,23,17.90
2016,06,28,17,24,17.90
2016,06,28,17,25,17.90
2016,06,28,17,26,18.10
2016,06,28,17,27,18.10
2016,06,28,17,28,18.20
2016,06,28,17,29,18.20
2016,06,28,17,30,18.20
2016,06,28,17,31,18.20
2016,06,28,17,32,18.30
2016,06,28,17,33,18.30
2016,06,28,17,34,18.40
2016,06,28,17,35,18.50
2016,06,28,17,36,18.60
2016,06,28,17,37,18.60
2016,06,28,17,38,18.60
2016,06,28,17,39,18.60
2016,06,28,17,40,18.60
2016,06,28,17,41,18.70
2016,06,28,17,42,18.70
2016,06,28,18,43,20.30
2016,06,28,18,44,20.30
2016,06,28,18,46,20.50
2016,06,28,18,47,20.50
2016,06,28,18,48,20.60
2016,06,28,18,49,20.60
2016,06,28,18,51,20.60
2016,06,28,18,52,20.70
2016,06,28,18,53,20.70
2016,06,28,18,54,20.70
2016,06,28,18,55,20.70
2016,06,28,18,56,20.80
2016,06,28,18,57,20.70
2016,06,28,18,58,20.70
2016,06,28,18,59,20.70
2016,06,28,19,00,20.80
2016,06,28,19,01,20.80
2016,06,28,19,02,20.90
2016,06,28,19,03,20.90
2016,06,28,19,04,21.00
2016,06,28,19,06,21.10
2016,06,28,19,07,21.10
2016,06,28,19,08,21.10
2016,06,28,19,09,21.20
2016,06,28,19,10,21.20
2016,06,28,19,11,21.20
2016,06,28,19,12,21.20
2016,06,28,19,13,21.30
2016,06,28,19,14,21.30
2016,06,28,19,15,21.30
2016,06,28,19,16,21.20
2016,06,28,19,17,21.20
2016,06,28,19,18,21.10
2016,06,28,19,19,21.10
2016,06,28,19,20,21.10
2016,06,28,19,21,21.10
2016,06,28,19,22,21.00
2016,06,28,19,23,21.00
2016,06,28,19,24,21.00
2016,06,28,19,25,21.00
2016,06,28,19,26,21.00
2016,06,28,19,27,21.00
2016,06,28,19,28,21.00
2016,06,28,19,29,21.00
2016,06,28,19,30,21.00
2016,06,28,19,31,21.10
2016,06,28,19,32,21.10
2016,06,28,19,33,21.20
2016,06,28,19,34,21.20
2016,06,28,19,35,21.20
2016,06,28,19,36,21.20
2016,06,28,19,37,21.30
2016,06,28,19,38,21.30
2016,06,28,19,39,21.30
2016,06,28,19,40,21.30
2016,06,28,19,41,21.20
2016,06,28,19,42,21.20
2016,06,28,19,43,21.20
2016,06,28,19,44,21.20
2016,06,28,19,45,21.10
2016,06,28,19,46,21.10
2016,06,28,19,47,21.00
2016,06,28,19,48,20.90
2016,06,28,19,49,20.90
2016,06,28,19,50,20.80
2016,06,28,19,51,20.80
2016,06,28,19,52,20.70
2016,06,28,19,53,20.70
2016,06,28,19,54,20.70
2016,06,28,19,55,20.70
2016,06,28,19,56,20.70
2016,06,28,19,57,20.70
2016,06,28,19,58,20.70
2016,06,28,19,59,20.80
2016,06,28,20,00,20.70
2016,06,28,20,01,20.70
2016,06,28,20,02,20.70
2016,06,28,20,03,20.70
2016,06,28,20,04,20.80
2016,06,28,20,05,20.80
2016,06,28,20,06,20.80
2016,06,28,20,07,20.90
2016,06,28,20,08,20.90
2016,06,28,20,09,20.80
2016,06,28,20,10,20.90
2016,06,28,20,11,20.80
2016,06,28,20,12,20.90
2016,06,28,20,13,20.90
2016,06,28,20,14,20.90
2016,06,28,20,15,21.00
2016,06,28,20,16,21.10
2016,06,28,20,17,21.10
2016,06,28,20,18,21.20
2016,06,28,20,19,21.20
2016,06,28,20,20,21.20
2016,06,28,20,21,21.20
2016,06,28,20,22,21.30
2016,06,28,20,23,21.30
2016,06,28,20,24,21.30
2016,06,28,20,25,21.40
2016,06,28,20,26,21.40
2016,06,28,20,28,21.60
2016,06,28,20,29,21.60
2016,06,28,20,31,21.70
2016,06,28,20,32,21.70
2016,06,28,20,33,21.70
2016,06,28,20,34,21.70
2016,06,28,20,36,21.70
2016,06,28,20,37,21.80
2016,06,28,20,38,21.80
2016,06,28,20,39,21.80
2016,06,28,20,41,21.80
2016,06,28,20,42,21.80
2016,06,28,20,43,21.80
2016,06,28,20,44,21.80
2016,06,28,20,46,21.70
2016,06,28,20,47,21.70
2016,06,28,20,48,21.70
2016,06,28,20,49,21.70
2016,06,28,20,51,21.70
2016,06,28,20,52,21.70
2016,06,28,20,53,21.70
2016,06,28,20,54,21.70
2016,06,28,20,56,21.80
2016,06,28,20,57,21.80
2016,06,28,20,58,21.90
2016,06,28,20,59,21.90
2016,06,28,21,01,21.90
2016,06,28,21,02,21.90
2016,06,28,21,03,21.90
2016,06,28,21,04,21.80
2016,06,28,21,06,21.80
2016,06,28,21,07,21.70
2016,06,28,21,08,21.60
2016,06,28,21,09,21.60
2016,06,28,21,11,21.40
2016,06,28,21,12,21.30
2016,06,28,21,13,21.30
2016,06,28,21,14,21.30
2016,06,28,21,16,21.40
2016,06,28,21,17,21.60
2016,06,28,21,18,21.60
2016,06,28,21,19,21.60
2016,06,28,21,21,21.70
2016,06,28,21,22,21.70
2016,06,28,21,23,21.70
2016,06,28,21,24,21.60
2016,06,28,21,26,21.60
2016,06,28,21,27,21.60
2016,06,28,21,28,21.60
2016,06,28,21,29,21.60
2016,06,28,21,31,21.40
2016,06,28,21,32,21.40
2016,06,28,21,33,21.40
2016,06,28,21,34,21.40
2016,06,28,21,36,21.60
2016,06,28,21,37,21.60
2016,06,28,21,38,21.60
2016,06,28,21,39,21.60
2016,06,28,21,41,21.60
2016,06,28,21,42,21.60
2016,06,28,21,43,21.60
2016,06,28,21,44,21.60
2016,06,28,21,45,21.70
2016,06,28,21,46,21.70
2016,06,28,21,47,21.60
2016,06,28,21,48,21.60
2016,06,28,21,49,21.60
2016,06,28,21,51,21.60
2016,06,28,21,52,21.60
2016,06,28,21,53,21.60
2016,06,28,21,54,21.60
2016,06,28,21,55,21.60
2016,06,28,21,56,21.60
2016,06,28,21,57,21.60
2016,06,28,21,58,21.60
2016,06,28,21,59,21.60
2016,06,28,22,00,21.60
2016,06,28,22,01,21.60
2016,06,28,22,02,21.60
2016,06,28,22,03,21.60
2016,06,28,22,04,21.40
2016,06,28,22,06,21.30
2016,06,28,22,07,21.30
2016,06,28,22,08,21.30
2016,06,28,22,09,21.30
2016,06,28,22,10,21.30
2016,06,28,22,11,21.30
2016,06,28,22,12,21.20
2016,06,28,22,13,21.10
2016,06,28,22,14,21.10
2016,06,28,22,15,21.00
2016,06,28,22,16,21.00
2016,06,28,22,17,20.90
2016,06,28,22,18,20.90
2016,06,28,22,19,20.80